This is the latest recevied weather packets stored in our database for station/object DB0PDF-L4. If no packets are shown the sender has not sent any weather packets the latest 10 day(s).
| Time | Temp. | Humidity | Pressure | Rain* | Wind** | Luminosity | Snow |
|---|---|---|---|---|---|---|---|
| 1777840063 | 18.89° C | 61% | 1001 hPa | - | - | - | - |
| 1777836459 | 18.89° C | 59% | 1001 hPa | - | - | - | - |
| 1777835558 | 18.89° C | 59% | 1001 hPa | - | - | - | - |
| 1777834657 | 18.89° C | 59% | 1001 hPa | - | - | - | - |
| 1777829250 | 19.44° C | 51% | 1000 hPa | - | - | - | - |
| 1777828349 | 20° C | 52% | 1000 hPa | - | - | - | - |
| 1777823843 | 26.11° C | 33% | 999 hPa | - | - | - | - |
| 1777822041 | 27.22° C | 30% | 999 hPa | - | - | - | - |
| 1777821140 | 27.78° C | 29% | 999 hPa | - | - | - | - |
| 1777820239 | 28.89° C | 26% | 999 hPa | - | - | - | - |
| 1777816634 | 31.11° C | 25% | 999 hPa | - | - | - | - |
| 1777814832 | 31.11° C | 24% | 999 hPa | - | - | - | - |
| 1777813931 | 30.56° C | 25% | 999 hPa | - | - | - | - |
| 1777813030 | 30.56° C | 28% | 1000 hPa | - | - | - | - |
| 1777811228 | 30.56° C | 29% | 1000 hPa | - | - | - | - |
| 1777806722 | 29.44° C | 32% | 1001 hPa | - | - | - | - |
| 1777805821 | 29.44° C | 32% | 1001 hPa | - | - | - | - |
| 1777804920 | 30° C | 33% | 1001 hPa | - | - | - | - |
| 1777804019 | 28.89° C | 33% | 1001 hPa | - | - | - | - |
| 1777803118 | 28.89° C | 32% | 1001 hPa | - | - | - | - |
| 1777802217 | 28.89° C | 33% | 1001 hPa | - | - | - | - |
| 1777800414 | 29.44° C | 35% | 1001 hPa | - | - | - | - |
| 1777799513 | 28.33° C | 36% | 1001 hPa | - | - | - | - |
| 1777798612 | 27.78° C | 39% | 1002 hPa | - | - | - | - |
| 1777796810 | 26.67° C | 44% | 1002 hPa | - | - | - | - |
* Rain since midnight (hover to see other rain measurements)
** Current wind speed in m/s (hover to see current wind gust speed)